NOAA 16 DEB

Satellite information

Favourite Embed

Satellite Type and Status

DEBRISIN ORBIT

Key statistics

Satellite NOAA 16 DEB at a glance.

Uptime

9215

Days in orbit

Revolutions

≈ 14.4

Per day

Orbit

SSO

Sun Synchronous Orbit

Inclination

98.9

Latest

Satellite identification and parameters

Extended collection of information and parameters for NOAA 16 DEB.

Object identification

Identified? True

Debris? True

Object name: NOAA 16 DEB

International designator: 2000-055DB

Object number (NORAD): 41198

Object ID (CCSDS): 41198

Country: UNITED STATES OF AMERICA (US)

Current information (Y/N): Y

RCS size: SMALL

Orbital parameters

Period: 99.943 minutes

Inclination: 98.9147 deg

SMA: 7133.941 km

Apoapsis: 769.752 km

Periapsis: 741.859 km

RAAN: 87.5114 deg

Eccentricy: 0.00195496

Argument of periapsis: 346.3757 deg

Mean anomaly: 13.69 deg

Mean motion: 14.40815988 rev/day

Mean motion (dot): 0.00027305 rev/day2

B* drag term: 0.008488325 1/REarth

Two-line elements (TLE)

Creation date: Dec. 11, 2025, 7:14 p.m.

Reference frame: TEME

Reference center: EARTH

Epoch: Dec. 11, 2025, 12:35 p.m. UTC

TLE line 0: 0 NOAA 16 DEB

TLE line 1: 1 41198U 00055DB 25345.52447408 .00027305 00000-0 84883-2 0 9996

TLE line 2: 2 41198 98.9147 87.5114 0019550 346.3757 13.6900 14.40815988514719

Live tracking on map

Real-time ground track for satellite NOAA 16 DEB.

In-orbit conjunctions

A list of the most updated potential collisions computed for object NOAA 16 DEB.

Target Orbit TCA Probability of collision Miss distance Type
SL-8 R/B LEO 2025-11-27 01:20:47 0.000129774 178.0 (m) ROCKET BODY
CZ-2D R/B LEO 2025-05-29 04:17:57 0.000100621 263.0 (m) ROCKET BODY
COSMOS 2298 LEO 2025-05-17 11:18:21 0.0001571133 89.0 (m) PAYLOAD
COSMOS 836 LEO 2025-04-06 16:51:28 0.000113944 377.0 (m) PAYLOAD
COSMOS 836 LEO 2025-04-06 15:10:59 0.0001132363 115.0 (m) PAYLOAD

Associated space launch

The NOAA K, L and M POES satellites begin the fifth generation of improved environmental monitoring in support of NOAA missions. The instrument payload has significant improvements and additions/deletions. The instrument changes have effected the spacecraft subsystems and data formats.

NOAA 16 DEB was lifted into orbit during the mission ‘Titan II SLV | NOAA 16’, on board a Titan II SLV space rocket.

The launch took place on Sept. 21, 2000, 10:22 a.m. from Space Launch Complex 4W.

For more information about the launch, click the button.

Launch to space Titan II SLV | NOAA 16
Titan II SLV | NOAA 16

Agency: N/A

Status: Launch Successful

Launch date: Sept. 21, 2000, 10:22 a.m. UTC

Rocket: Titan II SLV

Launch pad: Space Launch Complex 4W

Location: Vandenberg SFB, CA, USA

...

Latest news about this satellite

There are no fresh news available about this satellite. Check back as we update our databases every day.


Newsletter sign-up

Weekly statistics, charts and insights to help you stay on top of the space industry.